Location: Ar Ranvel
(48.3000°N, 4.8833°W)
Time: 14:36:19
(UTC+00:00)

COBE Rocket - Pass Details

Date: 16 June 2021
Orbit: 679 x 782 km, 97.1° (Epoch: 30 July)

Event Time Altitude Azimuth Distance (km) Brightness Sun altitude
Exits shadow 23:51:45 32° 190° (S) 1,292 4.6 -18.0°
Maximum altitude 23:54:03 63° 260° (W) 845 4.1 -18.1°
Drops below altitude 10° 23:59:00 10° 342° (NNW) 2,259 7.6 -18.2°
Sets 00:01:17 0° 345° (NNW) 3,170 8.8 -18.2°
